Location: Newark
(41.0400°S, 62.7845°W)
Time: 07:56:45
(UTC+00:00)

Transit 2A - Pass Details

Date: 01 December 2021
Orbit: 591 x 967 km, 66.7° (Epoch: 19 January)

Event Time Altitude Azimuth Distance (km) Brightness Sun altitude
Rises 17:56:39 0° 295° (WNW) 3,185 9.7 58.9°
Reaches altitude 10° 17:59:37 10° 280° (W) 2,198 9.0 58.5°
Maximum altitude 18:03:25 22° 229° (SW) 1,486 8.0 57.8°
Drops below altitude 10° 18:07:01 10° 178° (S) 2,060 8.2 57.2°
Sets 18:09:42 0° 162° (SSE) 2,932 8.8 56.8°
